Flag for Germany Weather past 2 weeks in Andernach, Rhineland-Palatinate, Germany

Now
70 °F

Mild.


Feels Like: 70 °F
Forecast: 61 / 89 °F
Wind: 8 mph from East

Location: Buechel

Current Time: Jun 30, 2015 at 11:08:35 AM

Latest Report: Jun 30, 2015 at 10:20 AM


Visibility: N/A

Pressure: 30.21 "Hg

Humidity: 50%

Dew point: 50 °F

Location of AndernachLocation

Historic Weather in Andernach — Graph

°F

Andernach temperature yesterday

Maximum temperature yesterday: 77 °F (at 4:20 PM)
Minimum temperature yesterday: 61 °F (at 5:20 AM)
Average temperature yesterday: 68 °F

Past Weeks' High & Low Weather Summary

 TemperatureHumidityPressure
High77 °F (Jun 29, 4:20 PM)100% (Jun 18, 6:20 AM)30.27 "Hg (Jun 18, 6:20 AM)
Low43 °F (Jun 23, 2:20 AM)30% (Jun 29, 4:20 PM)29.68 "Hg (Jun 22, 9:20 PM)
Average57 °F70%30.10 "Hg
* Reported Jun 15 9:20 AM — Jun 30 9:20 AM, Andernach, Weather by CustomWeather, © 2015

Note: Actual official high and low records may vary slightly from our data, if they occured in-between our weather recording intervals... More about our weather records

Advertising

Andernach weather history for previous 24 hours

 ConditionsComfort  
Time TempWeatherWind HumidityBarometerVisibility
9:20 AM
Tue, Jun 30
68 °FMild.8 mph56%30.21 "HgN/A
8:20 AM66 °FMild.6 mph60%30.21 "HgN/A
7:20 AM63 °FMild.6 mph64%30.21 "HgN/A
6:20 AM61 °FCool.6 mph68%30.21 "HgN/A
5:20 AM59 °FPassing clouds.7 mph72%30.18 "HgN/A
4:20 AM59 °FPassing clouds.5 mph72%30.21 "HgN/A
3:20 AM61 °FCool.5 mph68%30.21 "Hg4 mi
2:20 AM63 °FMild.6 mph64%30.21 "Hg4 mi
1:20 AM63 °FMild.5 mph64%30.21 "Hg4 mi
12:20 AM64 °FMild.5 mph60%30.21 "Hg4 mi
11:20 PM
Mon, Jun 29
64 °FMild.5 mph60%30.24 "Hg6 mi
10:20 PM66 °FMild.6 mph56%30.21 "Hg4 mi
9:20 PM68 °FBroken clouds.6 mph56%30.21 "HgN/A
8:20 PM70 °FBroken clouds.8 mph53%30.21 "HgN/A
7:20 PM72 °FBroken clouds.8 mph50%30.18 "HgN/A
6:20 PM75 °FBroken clouds.8 mph47%30.18 "HgN/A
5:20 PM75 °FBroken clouds.7 mph50%30.18 "HgN/A
4:20 PM77 °FBroken clouds.6 mph30%30.18 "HgN/A
3:20 PM75 °FBroken clouds.6 mph39%30.18 "HgN/A
2:20 PM75 °FBroken clouds.7 mph41%30.18 "HgN/A
1:20 PM73 °FScattered clouds.6 mph50%30.18 "HgN/A
12:20 PM72 °FBroken clouds.7 mph53%30.18 "HgN/A
11:20 AM68 °FPartly sunny.5 mph60%30.18 "HgN/A
Weather by CustomWeather, © 2015

See weather overviewHow to use our weather pages